Flag for Martinique Weather past 2 weeks in Fort-de-France, Martinique

Now
77 °F

Passing clouds.


Feels Like: 79 °F
Forecast: 74 / 85 °F
Wind: 6 mph from East

Location: Le Lamentin Airport

Current Time: Mar 31, 2015 at 11:33:07 PM

Latest Report: Mar 31, 2015 at 11:00 PM


Visibility: N/A

Pressure: 30.04 "Hg

Humidity: 74%

Dew point: 68 °F

Location of Fort-de-FranceLocation

Historic Weather in Fort-de-France — Graph

°F

Fort-de-France temperature yesterday

Maximum temperature yesterday: 84 °F (at 11:30 AM)
Minimum temperature yesterday: 73 °F (at 4:30 AM)
Average temperature yesterday: 78 °F

Past Weeks' High & Low Weather Summary

 TemperatureHumidityPressure
High86 °F (Mar 17, 10:30 AM)100% (Mar 17, 5:30 AM)30.12 "Hg (Mar 17, 5:30 AM)
Low66 °F (Mar 17, 5:30 AM)46% (Mar 31, 2:30 PM)29.89 "Hg (Mar 17, 3:30 PM)
Average78 °F76%30.00 "Hg
* Reported Mar 16 10:00 PM — Mar 31 10:00 PM, Fort-de-France, Weather by CustomWeather, © 2015

Note: Actual official high and low records may vary slightly from our data, if they occured in-between our weather recording intervals... More about our weather records

Advertising

Fort-de-France weather history for previous 24 hours

 ConditionsComfort  
Time TempWeatherWind HumidityBarometerVisibility
10:00 PM
Tue, Mar 31
75 °FPassing clouds.1 mph78%30.04 "HgN/A
9:30 PM75 °FClear.6 mph78%30.01 "HgN/A
9:00 PM75 °FClear.3 mph78%30.01 "HgN/A
8:30 PM75 °FClear.6 mph78%30.01 "HgN/A
8:00 PM77 °FPassing clouds.2 mph74%30.01 "HgN/A
7:30 PM77 °FPassing clouds.3 mph74%29.98 "HgN/A
7:00 PM77 °FPassing clouds.6 mph74%29.98 "HgN/A
6:30 PM79 °FPassing clouds.9 mph65%29.98 "HgN/A
6:00 PM79 °FPassing clouds.12 mph65%29.95 "HgN/A
5:30 PM81 °FClear.12 mph62%29.95 "HgN/A
5:00 PM81 °FOvercast.14 mph62%29.95 "HgN/A
4:30 PM82 °FClear.13 mph55%29.95 "HgN/A
4:00 PM84 °FClear.12 mph51%29.95 "HgN/A
3:30 PM84 °FClear.13 mph51%29.95 "HgN/A
3:00 PM84 °FClear.13 mph51%29.95 "HgN/A
2:30 PM86 °FClear.14 mph46%29.98 "HgN/A
2:00 PM86 °FPassing clouds.13 mph52%29.98 "HgN/A
1:30 PM86 °FPassing clouds.15 mph49%29.98 "HgN/A
1:00 PM86 °FPassing clouds.14 mph52%30.01 "HgN/A
12:30 PM86 °FPassing clouds.13 mph49%30.01 "HgN/A
12:00 PM84 °FPassing clouds.14 mph55%30.04 "HgN/A
11:30 AM84 °FPassing clouds.15 mph51%30.04 "HgN/A
11:00 AM86 °FPassing clouds.15 mph49%30.04 "HgN/A
10:30 AM84 °FPassing clouds.13 mph51%30.04 "HgN/A
10:00 AM84 °FPartly sunny.14 mph48%30.04 "HgN/A
9:30 AM82 °FScattered clouds.13 mph55%30.07 "HgN/A
9:00 AM82 °FPassing clouds.10 mph58%30.04 "HgN/A
8:30 AM81 °FPassing clouds.9 mph58%30.04 "HgN/A
8:00 AM79 °FClear.3 mph65%30.04 "HgN/A
7:30 AM75 °FPassing clouds.No wind78%30.04 "HgN/A
7:00 AM70 °FPassing clouds.No wind94%30.01 "HgN/A
6:30 AM68 °FClear.No wind94%30.01 "HgN/A
6:00 AM70 °FBroken clouds.1 mph88%30.01 "HgN/A
5:30 AM70 °FClear.No wind88%29.98 "HgN/A
5:00 AM70 °FClear.No wind88%29.98 "HgN/A
4:30 AM70 °FOvercast.No wind88%29.98 "HgN/A
4:00 AM70 °FClear.No wind83%29.98 "HgN/A
3:30 AM72 °FPassing clouds.3 mph83%29.98 "HgN/A
3:00 AM72 °FClear.3 mph83%29.98 "HgN/A
2:30 AM73 °FPassing clouds.3 mph78%29.98 "HgN/A
2:00 AM73 °FPassing clouds.6 mph74%29.98 "HgN/A
1:30 AM73 °FClear.7 mph74%29.98 "HgN/A
1:00 AM75 °FPassing clouds.8 mph74%29.98 "HgN/A
12:30 AM75 °FPartly cloudy.8 mph74%30.01 "HgN/A
12:00 AM75 °FPassing clouds.9 mph74%30.01 "HgN/A
11:30 PM
Mon, Mar 30
75 °FPartly cloudy.8 mph74%30.01 "HgN/A
11:00 PM75 °FClear.7 mph74%30.01 "HgN/A
Weather by CustomWeather, © 2015

See weather overviewHow to use our weather pages